Weather Service Report


027 
ASUS44 KMEG 221010
RWRMEG
MEMPHIS CWA HOURLY WEATHER ROUNDUP
NATIONAL WEATHER SERVICE MEMPHIS TN
500 AM CDT FRI AUG 22 2014

...WEST TENNESSEE...
  
CITY           SKY/WX    TMP DP  RH WIND       PRES   REMARKS
MEMPHIS INTL   CLEAR     77  72  84 SW8       30.05S                  
NWS MEMPHIS      N/A     78 N/A N/A MISG        N/A                   
JACKSON        CLEAR     75  72  90 S7        30.05R                  
LEXINGTON      CLEAR     72  72 100 CALM      30.05S                  
SAVANNAH       CLEAR     73  73 100 SW3       30.07S                  
DYERSBURG      CLEAR     75  64  69 CALM      30.04R                  
UNION CITY     CLEAR     72  72 100 S3        30.01R                  
PARIS          CLEAR     72  70  94 SW6       30.04R                  
HUNTINGDON     CLEAR     73  71  93 SW3       30.04S                  


...EASTERN ARKANSAS...
  
CITY           SKY/WX    TMP DP  RH WIND       PRES   REMARKS
JONESBORO      CLEAR     76  73  91 S5        30.01S                  
WEST MEMPHIS   CLEAR     75  75 100 S7        30.04S                  
BATESVILLE     CLEAR     79  72  78 SW5       30.01S                  
NEWPORT        CLEAR     75  74  97 S14       30.02F                  
WALNUT RIDGE   CLEAR     75  72  88 S6        30.00S                  
BLYTHEVILLE    CLEAR     75  75 100 SW8       30.03R                  
SEARCY           N/A     75  74  97 CALM        N/A                   
STUTTGART      CLEAR     75  72  88 S8        30.05S                  
PINE BLUFF     CLEAR     73  70  90 S6        30.06R                  
MONTICELLO     CLEAR     75  71  87 VRB3      30.07R                  


...NORTH MISSISSIPPI...
  
CITY           SKY/WX    TMP DP  RH WIND       PRES   REMARKS
TUPELO         CLEAR     75  71  87 W3        30.08R                  
OLIVE BRANCH   CLEAR     73  73 100 SW7       30.06S                  
CLARKSDALE     CLEAR     73  73 100 CALM      30.07F                  
CORINTH        CLEAR     75  72  88 SW5       30.07S                  
GRENADA        CLEAR     72  70  94 CALM      30.09R                  
GREENWOOD      CLEAR     73  70  90 S3        30.09R                  
COLUMBUS       CLEAR     73  73 100 CALM      30.08S                  
STARKVILLE     FAIR      70  68  94 CALM      30.09S                  
GOLDEN TRIANGL CLEAR     72  68  88 CALM      30.09S                  


...SOUTHEAST MISSOURI...
  
CITY           SKY/WX    TMP DP  RH WIND       PRES   REMARKS
WEST PLAINS    CLEAR     73  68  84 CALM      30.03F                  
POPLAR BLUFF   CLEAR     73  70  90 SW5       29.98S                  
CAPE GIRARDEAU CLEAR     73  71  93 S3        29.99R                  


...NORTHWEST ALABAMA...
  
CITY           SKY/WX    TMP DP  RH WIND       PRES   REMARKS
MUSCLE SHOALS  CLEAR     72  69  90 CALM      30.08S                  


...MIDDLE TENNESSEE...
  
CITY           SKY/WX    TMP DP  RH WIND       PRES   REMARKS
NASHVILLE      PTCLDY    74  72  93 S3        30.05R                  
CLARKSVILLE    CLEAR     74  72  93 SW3       30.02F                  
DICKSON        CLEAR     75  72  88 SW7       30.05S                  
COLUMBIA       CLEAR     73  73 100 CALM      30.06R                  
LEWISBURG      PTCLDY    71  68  90 CALM      30.06R                  


...WESTERN KENTUCKY...
  
CITY           SKY/WX    TMP DP  RH WIND       PRES   REMARKS
PADUCAH        CLEAR     77  73  87 SW6       29.99S                  
FORT CAMPBELL  CLEAR     75  75 100 S6        30.02F                  


...CENTRAL ARKANSAS...
  
CITY           SKY/WX    TMP DP  RH WIND       PRES   REMARKS
LITTLE ROCK    CLEAR     76  72  87 SW7       30.03F                  


SKY/WX REPORTED AS FAIR MEANS FEW OR NO CLOUDS BELOW
12 THOUSAND FEET.


Return to Home page


Western Regional Climate Center, wrcc@dri.edu